Regional Weather Roundup
Issued by NWS Kansas City/Pleasant Hill, MO

Home | Current Version | Previous Version | Graphics & Text | Print | Product List | Glossary Off
Versions: 1 2 3 4 5 6 7 8 9 10 11 12 13 14 15 16 17 18 19 20 21 22 23 24 25 26 27 28 29 30 31 32 33 34 35 36 37 38 39 40 41 42 43 44 45 46 47 48 49 50

000
ASUS43 KEAX 051910
RWREAX

WEATHER ROUNDUP FOR EASTERN KANSAS AND NORTHWEST MISSOURI
NATIONAL WEATHER SERVICE KANSAS CITY/PLEASANT HILL MO
200 PM CDT SUN JUL 05 2015

KSZ040-057-103>105-MOZ028-029-037-043-052000-
...KANSAS CITY METROPOLITAN AREA...

CITY           SKY/WX    TMP DP  RH WIND       PRES   REMARKS
K.C. INTL      PTSUNNY   84  74  71 S12       29.94F HX  91
K.C. DOWNTOWN  PTSUNNY   87  73  62 SE10      29.93F HX  94
LEES SUMMIT    PTSUNNY   86  74  67 S9G18     29.97F HX  94
OLATHE - IXD   PTSUNNY   87  73  62 S13       29.96F HX  94
OLATHE - OJC   PTSUNNY   84  73  69 S13       29.95F HX  90
LAWRENCE       MOSUNNY   89  73  59 S10       29.93F HX  97

$$

MOZ001>008-011>017-020>025-030>033-038>040-044>046-053-054-052000-
...NORTHERN AND CENTRAL MISSOURI...

CITY           SKY/WX    TMP DP  RH WIND       PRES   REMARKS
ST. JOSEPH     PTSUNNY   87  73  62 S13       29.92F HX  94
MOSBY          PTCLDY    86  70  58 S9        29.95F HX  90
HARRISONVILLE  PTSUNNY   90  73  58 S12       29.99F HX  98
WARRENSBURG    PTSUNNY   86  72  62 S9        29.98S HX  92
WHITEMAN AFB   MOSUNNY   86  74  66 S9        29.98S HX  94
CLINTON        PTSUNNY   88  75  66 SE7       30.00S HX  97
SEDALIA        PTSUNNY   87  74  64 S12       30.01F HX  95
WARSAW         NOT AVBL
CHILLICOTHE      N/A     87  71  58 SE9       29.97F HX  93
KIRKSVILLE     PTSUNNY   84  68  58 S12       30.01F

$$

MOZ041-047>049-056>058-063>065-088>090-097-052000-
...EASTERN AND SOUTHERN MISSOURI...

CITY           SKY/WX    TMP DP  RH WIND       PRES   REMARKS
ST. LOUIS INTL MOSUNNY   87  66  49 SW5       30.05F
SPIRIT OF STL  PTSUNNY   85  68  56 CALM      30.03F
COLUMBIA       PTSUNNY   84  72  67 S9        30.02F
JEFFERSON CITY MOSUNNY   83  70  64 SE9       30.00F
MEXICO         MOSUNNY   86  73  66 S9        30.02  HX  93
ROLLA          MOSUNNY   83  70  64 SE7       30.04F
LEBANON        PTSUNNY   84  70  61 MISG      30.05F
OSAGE BEACH    PTSUNNY   84  70  61 S3        30.03F
SPRINGFIELD    MOSUNNY   85  72  65 VRB6      30.02F HX  91
BRANSON        CLOUDY    84  75  74 E9        30.05F HX  92
JOPLIN         PTSUNNY   87  76  69 S12       29.99F HX  97
WEST PLAINS    MOSUNNY   82  69  64 S6        30.09F
MALDEN         PTSUNNY   86  70  58 S3        30.07S HX  90

$$

IAZ060-094-KSZ022-034>040-054-083-096-NEZ052-066-093-052000-
...KANSAS...SOUTHEAST NEBRASKA AND IOWA...

CITY           SKY/WX    TMP DP  RH WIND       PRES   REMARKS
TOPEKA         PTSUNNY   84  73  69 SE8       29.91F HX  90
MANHATTAN      SUNNY     93  72  50 S16G25    29.87F HX 101
EMPORIA        MOSUNNY   85  72  65 SE16      29.93F HX  91
CHANUTE        PTSUNNY   90  74  59 S9        29.95F HX  99
WICHITA        MOSUNNY   97  65  34 S17G30    29.89F HX  99
OMAHA          CLOUDY    84  71  65 S17G29    29.86F
LINCOLN        MOSUNNY   89  74  60 SE21      29.85F HX  98
FALLS CITY     PTSUNNY   88  73  61 S17       29.89F HX  95
LAMONI         PTSUNNY   85  70  60 S10       29.95F
DES MOINES     CLOUDY    86  70  58 SE15      29.93F HX  90

$$




USA.gov is the U.S. government's official web portal to all federal, state and local government web resources and services.